Wind_Speed
8 7 7 6 5 5 7 7 7 6 6 7 7 6 5 5 6 6 6 6 6 6 6 6 6 6 5 5 6 6 6 6 6 6 6 6 7 7 7 7 7 7 8 8 8 8 9 9 10
8 8 8 7 5 7 8 8 8 8 8 8 8 8 7 7 7 7 8 8 7 7 7 7 7 7 7 7 7 7 7 8 8 7 8 8 8 8 8 8 8 8 9 8 9 9 10 10 11
8 8 8 7 7 8 9 10 9 9 10 9 9 9 9 8 9 9 9 9 8 8 8 8 8 8 8 8 8 9 9 9 9 9 9 9 10 10 10 10 9 9 10 10 10 10 11 11 12
9 8 8 8 9 10 10 11 11 11 11 11 11 11 11 11 10 10 10 10 10 10 9 9 9 9 9 9 9 10 10 10 10 10 10 10 11 11 11 11 11 11 11 11 12 12 12 13 13
10 9 9 9 10 11 11 11 12 12 12 12 12 12 12 12 12 11 11 11 10 10 10 11 11 11 10 10 11 11 11 11 11 11 12 12 12 12 12 12 12 12 12 13 13 13 14 14 14
10 10 9 10 12 12 12 12 11 12 12 13 13 13 12 12 13 12 12 12 11 11 12 12 11 12 12 12 12 12 12 12 12 12 13 13 13 13 13 13 14 14 14 15 15 15 16 16 16
10 9 10 11 12 12 12 13 13 13 14 14 14 14 13 13 13 12 13 13 12 12 12 12 12 13 12 12 13 14 14 13 13 14 14 15 15 14 15 15 16 16 16 17 18 18 18 18 17
10 10 10 11 12 12 12 13 13 14 14 14 14 13 14 14 14 13 14 14 13 13 12 12 13 13 13 14 14 14 15 15 14 14 15 16 16 16 17 17 18 18 18 18 19 19 19 19 19
10 10 11 11 12 12 12 13 13 13 13 14 14 14 14 14 15 14 15 14 14 14 14 14 15 15 15 15 15 15 15 16 15 16 16 17 18 18 18 18 19 19 19 19 19 20 20 20 21
8 9 11 12 12 11 12 12 12 12 12 13 13 14 13 14 15 15 15 15 14 15 15 16 16 16 17 17 17 16 16 16 16 17 18 18 19 19 18 19 20 20 20 20 21 21 22 22 23
8 8 10 10 11 11 11 12 12 12 12 13 13 13 14 14 14 14 14 14 15 15 16 17 17 17 18 18 18 17 17 17 17 18 19 18 19 19 19 20 21 21 21 21 22 23 23 24 24
7 8 9 10 10 11 11 11 11 11 12 12 13 13 14 14 14 15 15 15 15 16 16 17 18 18 19 19 19 18 18 18 18 18 19 19 19 20 20 21 21 21 21 22 23 23 24 25 24
7 8 9 10 10 10 10 10 11 11 12 12 13 13 14 15 15 15 16 16 16 15 15 16 17 18 19 19 19 19 19 19 18 18 19 19 20 21 21 22 22 22 23 23 23 23 24 25 25
7 7 8 9 10 10 10 11 11 11 12 12 13 13 14 14 15 15 16 16 15 15 15 16 17 18 19 19 19 19 19 19 20 20 20 21 22 22 23 23 23 23 24 24 24 24 24 25 26
6 6 7 9 10 10 10 10 11 11 12 13 13 13 13 14 15 15 15 15 15 16 16 17 18 18 19 19 19 20 20 20 21 21 21 22 22 23 24 24 24 24 24 25 25 24 25 25 25
6 6 6 9 9 9 9 10 10 10 11 12 13 14 13 14 15 15 15 15 15 16 17 18 17 17 17 18 19 20 20 21 22 22 23 23 23 23 25 25 25 24 24 24 24 24 25 25 25
6 6 8 9 9 9 9 10 11 11 12 13 14 14 14 14 15 16 15 15 16 17 17 17 17 17 18 19 19 21 21 21 22 22 22 23 23 24 24 24 24 24 24 24 24 24 24 25 25
7 7 8 9 10 10 10 11 13 12 13 14 14 14 15 15 16 16 16 16 17 17 17 17 17 18 19 20 20 20 20 20 21 21 21 22 23 22 22 23 23 23 23 24 24 24 24 24 25
8 8 9 10 10 10 11 12 12 13 14 14 14 14 15 15 16 16 16 16 16 17 17 18 18 19 19 19 19 20 19 20 20 20 21 22 22 22 23 23 24 24 24 23 23 23 23 24 25
8 8 8 8 9 10 11 12 13 14 14 14 14 14 14 14 15 15 15 15 15 16 17 17 17 17 19 19 19 19 19 19 19 19 20 21 21 21 23 23 24 24 24 23 23 23 23 23 24
7 7 8 8 9 10 10 12 13 14 13 13 13 14 13 13 14 14 14 14 15 16 17 17 17 18 19 19 19 19 19 19 19 20 20 19 20 21 22 23 23 23 24 24 24 23 24 24 24
6 7 7 8 9 10 10 11 12 13 13 13 13 13 13 13 14 13 13 14 15 16 16 16 17 18 18 17 18 19 18 18 19 20 19 19 20 21 22 22 23 23 23 24 24 24 23 24 24
6 7 7 8 8 10 10 11 12 12 12 13 13 13 13 13 13 13 13 14 15 16 16 16 17 18 17 17 17 18 18 19 19 19 20 20 21 21 23 23 24 24 24 24 23 23 23 24 24
7 7 7 8 9 10 11 10 12 12 12 12 13 13 13 13 13 14 14 14 15 16 16 17 18 18 17 17 17 18 18 18 19 19 20 20 21 22 23 23 23 23 23 23 22 23 24 24 24
6 7 8 8 9 10 12 11 11 13 12 12 12 12 12 13 14 14 15 16 16 17 17 17 17 18 17 17 17 17 18 19 19 19 20 20 21 22 23 22 21 21 22 23 23 23 23 23 23
7 7 8 9 10 11 13 13 12 13 12 12 12 12 13 14 14 15 16 17 17 17 16 16 17 18 17 17 17 17 18 18 18 19 20 20 20 21 21 21 20 21 22 22 23 23 23 24 24
8 8 10 10 11 11 12 13 13 13 13 13 12 13 13 14 15 15 16 17 17 17 16 16 17 17 17 17 17 17 18 19 19 20 20 20 20 20 20 20 21 21 21 22 23 23 23 24 24
10 10 11 10 11 12 13 14 14 13 13 13 13 14 15 15 16 16 17 18 17 16 17 17 17 17 18 18 19 19 19 19 19 20 19 19 19 19 20 20 21 21 22 22 23 23 23 23 23
11 11 11 12 12 12 13 14 14 14 14 14 14 15 15 16 17 18 18 18 17 17 17 18 17 18 19 19 20 20 19 19 20 19 19 19 19 19 20 20 20 20 21 22 22 22 22 22 22
12 12 12 12 13 13 13 14 13 14 14 14 14 15 15 16 17 18 18 17 17 17 17 17 17 18 19 19 19 19 19 19 19 19 19 19 20 20 20 20 20 21 21 22 22 22 21 21 21
Wind_Direction
244 245 246 248 250 255 254 258 261 259 267 272 271 268 268 272 267 268 267 272 276 270 261 268 269 266 267 269 268 264 266 270 273 270 266 268 268 268 271 274 275 277 277 277 277 276 273 271 270
242 241 244 248 246 253 260 257 260 262 268 270 271 271 271 275 271 271 270 272 277 274 270 269 268 265 267 271 272 268 269 271 273 268 265 267 270 270 271 274 275 276 277 275 276 274 273 272 270
244 242 247 250 245 247 260 260 262 266 265 265 267 270 272 273 270 270 274 274 277 277 272 268 268 264 265 271 275 275 276 275 272 269 268 269 269 271 273 274 275 275 276 276 276 274 273 272 271
247 251 252 254 255 259 261 263 267 265 263 263 265 267 269 269 270 273 274 278 280 284 275 268 268 267 267 268 275 277 277 275 272 271 272 272 273 273 273 274 275 276 277 276 277 277 275 272 271
244 250 253 259 263 261 262 264 266 265 263 261 261 266 269 269 270 271 273 276 279 284 282 273 271 271 270 271 273 273 274 274 275 274 273 274 275 276 275 274 275 277 278 278 279 279 279 275 271
242 246 251 258 266 264 262 264 264 264 265 262 262 266 268 268 270 274 276 278 279 281 284 278 275 273 272 274 275 275 273 273 278 277 277 278 277 276 277 275 276 277 280 281 279 278 278 277 274
242 246 253 260 267 265 261 262 261 262 265 261 260 265 268 272 275 280 283 284 282 281 280 278 277 276 272 274 277 276 278 276 277 279 280 280 280 281 280 278 278 277 279 279 278 278 278 277 275
245 248 256 261 263 263 262 262 261 263 264 261 260 266 272 274 280 283 286 285 281 278 278 279 279 275 276 277 275 278 281 279 277 280 281 280 279 280 282 280 280 279 279 280 279 279 279 278 276
249 248 255 258 258 260 263 262 260 264 264 259 260 267 274 277 281 283 285 285 280 277 276 278 277 274 275 276 277 277 280 280 278 280 283 283 281 280 280 280 281 282 281 281 280 279 277 276 278
247 248 251 256 257 259 261 260 260 262 265 266 268 271 275 277 281 284 285 283 280 276 276 276 277 275 276 276 276 279 281 284 281 280 283 284 282 282 281 283 282 281 279 278 279 278 278 277 278
253 249 253 256 257 258 261 261 263 265 268 272 273 272 275 278 280 282 285 285 282 278 276 277 275 276 276 276 276 279 282 283 284 283 283 286 285 283 283 284 284 283 281 280 279 279 278 280 279
253 249 251 255 256 259 262 262 266 268 270 272 274 275 277 278 280 283 286 288 284 280 278 277 277 276 276 275 274 277 279 281 283 285 283 283 285 286 286 286 286 283 282 281 282 282 281 281 281
252 254 253 257 261 264 266 266 268 267 269 270 273 275 277 279 282 285 287 288 285 282 281 279 278 277 276 273 271 273 276 279 281 284 285 283 285 287 286 286 285 284 283 283 285 284 282 281 280
256 257 256 258 260 264 269 270 272 271 271 270 275 278 278 282 285 287 287 287 285 283 283 282 280 277 276 274 274 275 277 279 281 284 284 283 284 287 286 286 286 286 285 285 285 283 281 280 279
255 258 260 262 259 263 271 273 273 271 273 277 280 282 286 286 286 286 287 285 286 286 286 286 281 280 279 277 275 276 277 278 280 283 285 286 286 287 286 286 288 287 285 285 283 282 282 282 281
251 261 264 266 263 266 270 273 272 273 277 280 281 283 284 287 288 286 285 286 288 289 289 288 283 284 282 280 278 277 277 278 281 282 284 287 288 290 288 288 288 288 286 284 283 283 283 283 282
253 252 258 264 268 268 269 272 279 278 279 280 280 280 283 287 290 288 286 286 287 288 290 290 288 289 288 285 283 281 280 280 281 283 284 287 290 292 293 292 291 289 288 287 286 285 284 283 282
241 249 257 263 268 273 274 277 282 281 282 282 281 282 285 288 288 289 288 288 287 289 293 294 292 292 290 289 289 287 285 282 281 283 284 287 288 291 296 296 294 292 291 289 288 288 286 283 281
246 251 260 270 270 277 281 282 282 283 287 287 284 285 287 291 289 291 291 291 291 290 293 295 295 294 293 292 290 289 286 284 283 283 284 287 290 292 294 295 296 294 292 292 292 291 287 285 283
254 257 267 275 275 283 287 289 287 288 286 288 290 289 290 293 293 296 296 295 296 292 291 295 298 297 294 292 290 288 288 286 285 286 286 288 292 294 296 297 295 294 292 293 293 291 289 288 287
260 268 272 278 285 292 299 299 297 294 291 291 294 296 297 299 302 300 296 294 300 299 296 295 295 296 295 292 289 290 290 290 291 292 291 291 293 296 297 296 295 295 295 295 293 292 291 289 288
272 274 275 282 293 300 303 303 297 299 298 298 301 303 301 299 302 303 301 298 301 305 302 298 299 299 297 293 292 294 292 292 292 292 292 293 294 295 297 297 296 296 297 296 294 292 292 291 290
281 279 278 287 294 299 303 306 305 301 298 300 304 308 306 303 302 304 305 303 305 307 307 307 305 305 304 300 297 296 294 291 291 293 294 296 295 295 297 298 299 299 297 296 295 292 292 293 293
283 286 287 295 300 301 302 306 308 306 305 302 303 306 306 306 306 309 308 308 310 309 308 310 311 308 307 304 301 298 296 295 294 294 296 298 298 298 299 299 300 300 298 297 297 294 295 296 295
286 299 307 307 304 303 303 307 307 307 308 306 303 303 304 305 305 307 309 312 310 307 306 307 309 310 307 305 302 299 296 295 295 298 299 300 301 301 302 302 303 302 300 297 299 298 297 296 297
281 291 295 301 302 301 302 306 310 311 310 310 306 304 305 305 306 306 309 312 310 305 304 306 307 306 305 303 300 299 299 299 299 299 300 302 303 305 306 306 306 306 305 303 302 300 299 299 299
277 288 287 294 298 302 307 307 310 313 313 312 309 306 308 308 307 308 309 312 310 306 305 304 304 303 303 303 300 299 301 301 301 302 304 304 305 307 309 309 308 308 307 306 304 302 302 301 300
276 287 291 293 298 301 305 307 309 314 316 313 312 312 313 312 311 311 312 313 312 308 307 306 307 306 306 307 304 304 303 301 301 304 306 305 306 308 309 308 307 308 307 307 306 306 305 303 301
280 284 288 290 290 296 302 301 304 309 311 312 312 312 313 315 315 316 316 316 313 310 307 306 306 305 304 305 306 307 306 302 301 301 301 302 305 308 309 309 308 309 308 307 307 307 306 306 305
280 282 285 289 291 292 297 300 305 310 310 311 313 314 315 317 319 321 320 317 315 314 312 309 308 307 307 306 306 306 305 303 302 301 301 303 305 307 307 308 308 309 308 309 308 308 308 309 307
Height
5893 5893 5894 5895 5897 5898 5897 5897 5896 5896 5896 5896 5895 5895 5895 5895 5895 5896 5893 5891 5891 5890 5889 5889 5889 5889 5888 5887 5887 5887 5886 5886 5886 5885 5885 5884 5884 5884 5884 5883 5883 5882 5881 5881 5881 5881 5880 5880 5880
5891 5892 5893 5894 5896 5897 5896 5895 5895 5894 5894 5894 5893 5893 5893 5893 5892 5892 5890 5890 5889 5888 5887 5887 5887 5886 5886 5886 5885 5885 5884 5884 5883 5883 5882 5882 5882 5882 5881 5881 5880 5879 5879 5878 5878 5878 5878 5878 5877
5889 5890 5892 5893 5893 5894 5894 5893 5893 5892 5892 5892 5891 5891 5891 5891 5890 5890 5889 5888 5887 5886 5886 5885 5885 5884 5884 5883 5883 5882 5882 5881 5881 5880 5880 5879 5879 5879 5879 5878 5877 5877 5876 5876 5876 5875 5875 5875 5874
5887 5888 5890 5891 5891 5891 5891 5890 5890 5890 5890 5889 5889 5889 5889 5889 5888 5888 5887 5886 5885 5884 5883 5883 5882 5882 5881 5881 5881 5880 5879 5879 5878 5878 5877 5877 5876 5876 5875 5875 5874 5874 5873 5873 5873 5872 5872 5871 5871
5885 5886 5888 5888 5888 5888 5888 5887 5887 5887 5887 5887 5887 5887 5886 5886 5886 5885 5884 5884 5883 5882 5881 5880 5880 5879 5879 5878 5878 5877 5876 5876 5875 5875 5875 5874 5873 5872 5872 5871 5871 5871 5870 5870 5870 5869 5868 5868 5868
5883 5884 5886 5886 5885 5885 5885 5884 5884 5884 5884 5884 5884 5884 5884 5884 5883 5883 5882 5881 5880 5879 5878 5877 5876 5876 5875 5875 5875 5874 5874 5873 5872 5872 5871 5870 5870 5869 5869 5868 5867 5867 5866 5866 5866 5865 5865 5864 5864
5881 5882 5883 5883 5882 5882 5882 5881 5881 5881 5881 5881 5882 5882 5881 5881 5880 5880 5880 5879 5877 5876 5876 5875 5873 5873 5872 5872 5871 5871 5871 5870 5869 5868 5868 5867 5866 5865 5865 5864 5864 5863 5863 5862 5862 5861 5861 5860 5860
5878 5880 5880 5880 5880 5879 5879 5878 5878 5878 5878 5878 5879 5879 5879 5878 5878 5877 5877 5876 5875 5874 5873 5872 5871 5870 5870 5869 5868 5868 5867 5866 5865 5864 5864 5863 5862 5861 5861 5860 5860 5859 5858 5858 5857 5856 5856 5856 5855
5876 5878 5878 5877 5877 5877 5876 5876 5876 5876 5876 5876 5876 5876 5876 5876 5875 5875 5874 5873 5872 5871 5870 5869 5868 5867 5866 5865 5864 5864 5863 5862 5861 5860 5860 5859 5858 5857 5856 5856 5855 5855 5854 5853 5852 5852 5851 5850 5850
5873 5875 5875 5874 5874 5874 5873 5873 5873 5873 5873 5874 5874 5874 5873 5873 5872 5871 5871 5870 5869 5868 5867 5865 5864 5863 5862 5862 5861 5860 5860 5858 5857 5857 5856 5855 5853 5852 5851 5851 5851 5850 5849 5848 5847 5846 5845 5844 5844
5870 5871 5871 5871 5871 5871 5871 5871 5871 5871 5871 5871 5871 5871 5870 5870 5869 5868 5867 5867 5865 5864 5863 5862 5860 5859 5859 5858 5857 5856 5856 5855 5853 5852 5851 5850 5849 5848 5847 5847 5845 5844 5843 5843 5842 5841 5840 5839 5838
5868 5868 5868 5868 5868 5868 5868 5868 5869 5869 5869 5869 5868 5868 5867 5867 5866 5865 5864 5863 5861 5860 5858 5857 5856 5855 5854 5853 5853 5852 5852 5850 5849 5848 5847 5846 5845 5844 5843 5842 5840 5839 5838 5837 5836 5835 5834 5832 5832
5866 5866 5865 5865 5865 5865 5865 5866 5866 5866 5866 5866 5865 5865 5864 5863 5862 5861 5860 5859 5857 5855 5854 5853 5852 5851 5849 5848 5848 5847 5847 5846 5844 5843 5842 5841 5840 5839 5838 5837 5836 5834 5833 5831 5830 5829 5828 5826 5826
5864 5864 5863 5863 5863 5863 5863 5864 5864 5863 5863 5862 5862 5862 5861 5860 5859 5857 5856 5854 5853 5851 5850 5848 5847 5846 5844 5843 5843 5842 5841 5840 5839 5838 5837 5836 5835 5834 5833 5831 5830 5829 5827 5825 5824 5823 5821 5820 5819
5862 5862 5862 5862 5861 5861 5862 5862 5861 5860 5860 5859 5859 5858 5857 5856 5855 5854 5852 5850 5849 5847 5846 5844 5842 5841 5839 5838 5837 5836 5836 5835 5834 5833 5832 5830 5829 5828 5827 5825 5824 5822 5821 5819 5818 5816 5814 5813 5812
5861 5862 5862 5861 5860 5860 5862 5861 5859 5858 5857 5857 5856 5855 5854 5853 5851 5850 5848 5847 5845 5843 5841 5839 5837 5836 5834 5833 5832 5831 5830 5829 5828 5827 5826 5824 5823 5822 5821 5819 5818 5816 5814 5812 5811 5809 5807 5806 5805
5861 5861 5861 5860 5859 5859 5859 5858 5857 5856 5855 5854 5853 5852 5850 5849 5847 5846 5844 5843 5841 5839 5837 5835 5833 5831 5829 5828 5826 5825 5824 5823 5822 5820 5820 5819 5817 5816 5815 5813 5811 5809 5807 5805 5804 5802 5800 5799 5797
5861 5860 5859 5859 5858 5857 5856 5856 5854 5853 5852 5850 5849 5848 5847 5845 5843 5842 5840 5839 5837 5835 5833 5831 5829 5826 5824 5822 5820 5819 5818 5817 5816 5815 5814 5812 5811 5810 5809 5807 5805 5803 5801 5799 5796 5794 5793 5791 5790
5858 5858 5858 5857 5856 5855 5854 5853 5852 5850 5849 5847 5846 5845 5843 5841 5840 5838 5836 5834 5833 5830 5829 5826 5824 5822 5819 5817 5815 5814 5813 5812 5811 5810 5808 5807 5805 5805 5803 5801 5798 5796 5794 5792 5790 5788 5786 5784 5783
5856 5857 5857 5856 5855 5854 5853 5851 5850 5848 5847 5845 5843 5841 5840 5838 5836 5834 5833 5831 5828 5826 5824 5822 5820 5817 5815 5813 5811 5810 5809 5807 5806 5804 5803 5801 5800 5799 5797 5795 5792 5790 5788 5786 5784 5782 5780 5778 5776
5855 5855 5855 5854 5853 5852 5851 5850 5848 5845 5844 5842 5840 5839 5837 5835 5833 5832 5829 5827 5825 5822 5820 5818 5816 5814 5811 5809 5807 5806 5804 5803 5801 5800 5798 5796 5794 5793 5791 5789 5786 5784 5782 5780 5778 5776 5774 5772 5770
5854 5853 5853 5852 5852 5851 5850 5849 5846 5843 5841 5840 5838 5836 5834 5832 5831 5829 5826 5824 5822 5820 5817 5814 5812 5810 5807 5805 5803 5801 5800 5798 5797 5795 5793 5791 5789 5787 5785 5783 5780 5778 5776 5774 5772 5770 5767 5765 5763
5852 5852 5851 5850 5850 5849 5848 5847 5845 5841 5840 5838 5836 5834 5832 5830 5828 5826 5824 5822 5819 5817 5814 5812 5809 5806 5803 5801 5799 5797 5796 5794 5792 5790 5788 5786 5784 5782 5779 5777 5775 5773 5771 5768 5766 5763 5761 5759 5757
5850 5850 5849 5849 5848 5848 5846 5845 5843 5840 5838 5836 5834 5831 5829 5827 5825 5823 5821 5819 5817 5814 5811 5808 5806 5803 5800 5797 5795 5793 5791 5789 5787 5785 5783 5781 5778 5776 5774 5772 5769 5767 5765 5762 5760 5757 5755 5753 5750
5848 5849 5849 5849 5848 5847 5844 5842 5841 5837 5835 5833 5831 5829 5827 5825 5823 5821 5818 5816 5813 5811 5808 5805 5802 5800 5797 5794 5792 5789 5787 5785 5783 5780 5778 5775 5773 5771 5769 5766 5764 5761 5759 5756 5754 5751 5749 5746 5743
5846 5847 5848 5847 5846 5845 5841 5839 5838 5835 5833 5831 5829 5827 5824 5822 5820 5818 5815 5813 5810 5807 5804 5802 5799 5796 5793 5791 5788 5785 5783 5780 5778 5776 5773 5771 5768 5766 5763 5761 5759 5756 5753 5751 5748 5745 5742 5739 5736
5844 5844 5844 5844 5842 5841 5839 5837 5835 5832 5830 5828 5826 5824 5822 5819 5817 5815 5812 5809 5806 5803 5800 5798 5795 5792 5790 5787 5784 5781 5779 5776 5773 5771 5769 5766 5764 5761 5759 5756 5754 5751 5748 5745 5742 5739 5736 5733 5730
5842 5841 5841 5841 5840 5839 5838 5835 5832 5830 5828 5826 5823 5821 5819 5817 5814 5812 5809 5806 5803 5800 5797 5794 5791 5789 5786 5783 5780 5777 5774 5772 5769 5767 5764 5762 5759 5757 5754 5751 5749 5746 5743 5740 5737 5733 5730 5727 5724
5839 5839 5838 5837 5836 5836 5834 5835 5829 5827 5825 5823 5821 5818 5816 5814 5811 5809 5805 5802 5799 5796 5793 5790 5788 5785 5782 5779 5776 5773 5770 5768 5765 5762 5760 5757 5755 5752 5750 5747 5744 5741 5738 5735 5732 5728 5724 5721 5718
5835 5835 5834 5834 5833 5831 5830 5831 5826 5824 5822 5820 5818 5816 5813 5811 5808 5805 5802 5799 5796 5793 5790 5787 5784 5781 5778 5775 5772 5769 5766 5763 5761 5758 5755 5753 5750 5747 5745 5742 5739 5736 5733 5730 5726 5723 5719 5716 5713